GW2301 Weather Reports


time (UTC)temp
F
wind
direction
speed
knots
gust
knots
rain 1hr
in
rain 24hr
in
rain mn
in
humidity
%
barometer
mb
20260510231041 67 175 0.9 1.7 0.00 0.03 0.03 86 1015.4
20260510230536 67 111 0.9 1.7 0.00 0.03 0.03 86 1015.4
20260510230201 66 182 0.9 2.6 0.00 0.03 0.03 86 1015.5
20260510225528 66 182 0.9 2.6 0.00 0.03 0.03 85 1015.5
20260510225024 67 164 0.0 1.7 0.00 0.03 0.03 85 1015.3
20260510224639 67 216 0.0 1.7 0.00 0.03 0.03 83 1015.3
20260510224038 67 216 0.9 1.7 0.00 0.03 0.03 81 1015.4
20260510223546 67 5 0.0 0.9 0.00 0.03 0.03 82 1015.2
20260510223155 68 177 0.0 1.7 0.00 0.03 0.03 77 1015.3
20260510222548 69 281 0.0 2.6 0.00 0.03 0.03 72 1015.2
20260510222027 71 77 0.9 2.6 0.00 0.03 0.03 70 1015.4
20260510221654 71 79 0.0 2.6 0.00 0.03 0.03 65 1015.4
20260510221038 72 176 0.0 2.6 0.00 0.03 0.03 65 1015.3
20260510220545 72 250 0.9 2.6 0.00 0.03 0.03 63 1015.3
20260510220201 72 146 0.0 2.6 0.00 0.03 0.03 67 1015.2
20260510215523 72 163 0.9 2.6 0.00 0.03 0.03 68 1015.2
20260510215024 72 352 0.0 2.6 0.00 0.03 0.03 68 1015.4
20260510214658 72 66 0.0 1.7 0.00 0.03 0.03 68 1014.9
20260510214025 71 88 0.0 2.6 0.00 0.03 0.03 71 1015.1
20260510213532 71 46 0.9 2.6 0.00 0.03 0.03 74 1014.9
20260510213157 71 43 0.0 1.7 0.00 0.03 0.03 70 1015.0
20260510212529 72 43 0.0 5.2 0.00 0.03 0.03 67 1014.7
20260510212020 72 71 1.7 5.2 0.00 0.03 0.03 66 1014.8
20260510211658 72 38 0.0 1.7 0.00 0.03 0.03 68 1014.7
20260510211028 72 69 0.9 3.5 0.00 0.03 0.03 68 1014.6
20260510210528 72 33 0.9 3.5 0.00 0.03 0.03 72 1014.6
20260510210149 71 178 0.0 0.9 0.00 0.03 0.03 72 1014.4
20260510205540 71 178 0.0 0.9 0.00 0.03 0.03 75 1014.7
20260510205029 72 178 0.0 1.7 0.00 0.03 0.03 70 1014.5
20260510204722 71 248 0.9 1.7 0.00 0.03 0.03 71 1014.3
20260510204035 71 248 0.0 0.9 0.00 0.03 0.03 74 1014.4
20260510203525 73 237 0.0 2.6 0.00 0.03 0.03 72 1014.4
20260510203218 75 175 0.9 2.6 0.00 0.03 0.03 65 1014.6
20260510202529 73 344 0.0 2.6 0.00 0.03 0.03 76 1014.4
20260510202032 73 336 0.0 2.6 0.00 0.03 0.03 76 1014.4
20260510201735 71 242 0.9 1.7 0.00 0.03 0.03 84 1014.6
20260510201031 68 352 0.0 0.9 0.00 0.03 0.03 83 1014.4
20260510200543 68 254 0.0 2.6 0.00 0.03 0.03 82 1014.6
20260510200236 69 360 0.0 1.7 0.00 0.03 0.03 84 1014.6
20260510195543 69 82 0.0 1.7 0.00 0.03 0.03 81 1014.7
20260510195045 70 82 0.0 1.7 0.00 0.03 0.03 77 1014.8
20260510194735 71 82 0.0 1.7 0.00 0.03 0.03 73 1014.7
20260510194025 73 148 0.0 1.7 0.00 0.03 0.03 74 1014.6
20260510193529 71 40 0.0 1.7 0.00 0.03 0.03 79 1014.9
20260510193229 70 150 0.0 1.7 0.01 0.03 0.03 84 1014.9
20260510192529 69 169 0.9 1.7 0.03 0.03 0.03 86 1015.0
20260510192028 68 17 0.0 1.7 0.03 0.03 0.03 87 1014.7
20260510191731 68 107 0.0 1.7 0.03 0.03 0.03 84 1014.9
20260510191040 69 164 0.0 2.6 0.03 0.03 0.03 80 1014.9
20260510190546 72 160 0.0 4.3 0.03 0.03 0.03 73 1014.9
20260510190223 70 197 1.7 4.3 0.03 0.03 0.03 79 1015.2
20260510185530 68 64 0.0 1.7 0.03 0.03 0.03 86 1015.0
20260510185035 66 24 0.9 1.7 0.03 0.03 0.03 89 1015.1
20260510184708 65 29 0.0 1.7 0.03 0.03 0.03 87 1015.1
20260510184027 65 324 0.0 1.7 0.03 0.03 0.03 83 1015.2
20260510183535 67 283 0.0 1.7 0.02 0.02 0.02 76 1015.2
20260510183210 70 5 0.0 1.7 0.00 0.00 0.00 68 1015.2
20260510182529 73 47 0.9 1.7 0.00 0.00 0.00 64 1014.9
20260510182035 74 191 0.0 2.6 0.00 0.00 0.00 57 1015.1
20260510181658 75 60 0.0 8.7 0.00 0.00 0.00 56 1014.9
20260510181039 76 283 2.6 8.7 0.00 0.00 0.00 53 1014.7
20260510180529 77 88 1.7 7.0 0.00 0.00 0.00 52 1014.7
20260510180250 76 225 2.6 7.0 0.00 0.00 0.00 51 1014.6
20260510175532 78 253 2.6 7.8 0.00 0.00 0.00 51 1014.8
20260510175030 76 238 2.6 9.6 0.00 0.00 0.00 52 1015.1
20260510174736 77 203 2.6 9.6 0.00 0.00 0.00 51 1014.8
20260510174037 76 228 1.7 6.1 0.00 0.00 0.00 52 1014.7
20260510173522 78 254 1.7 7.8 0.00 0.00 0.00 49 1014.5
20260510173204 79 209 1.7 7.8 0.00 0.00 0.00 49 1014.6
20260510172540 79 226 0.9 4.3 0.00 0.00 0.00 49 1014.7
20260510172024 78 229 0.9 3.5 0.00 0.00 0.00 50 1014.5
20260510171710 78 184 0.9 6.1 0.00 0.00 0.00 52 1014.5
20260510171022 78 221 3.5 6.1 0.00 0.00 0.00 49 1014.7
20260510170526 78 161 3.5 6.1 0.00 0.00 0.00 49 1014.8
20260510170223 77 212 1.7 5.2 0.00 0.00 0.00 51 1014.9
20260510165528 76 200 2.6 7.0 0.00 0.00 0.00 54 1014.9
20260510165026 75 207 3.5 7.0 0.00 0.00 0.00 55 1014.8
20260510164656 73 234 1.7 6.1 0.00 0.00 0.00 57 1014.7
20260510164047 73 220 1.7 4.3 0.00 0.00 0.00 58 1014.9
20260510163521 71 230 0.9 2.6 0.00 0.00 0.00 63 1015.0
20260510163154 70 98 0.0 2.6 0.00 0.00 0.00 64 1014.7
20260510162524 71 138 0.9 2.6 0.00 0.00 0.00 61 1015.0
20260510162024 71 114 0.9 2.6 0.00 0.00 0.00 61 1014.9
20260510161711 72 330 0.0 2.6 0.00 0.00 0.00 58 1014.8
20260510161023 72 241 0.9 2.6 0.00 0.00 0.00 59 1015.0
20260510160521 73 121 0.0 4.3 0.00 0.00 0.00 57 1014.9
20260510160218 73 251 1.7 4.3 0.00 0.00 0.00 57 1014.7
20260510155536 72 271 0.9 5.2 0.00 0.00 0.00 58 1014.8
20260510155044 72 249 0.9 6.1 0.00 0.00 0.00 57 1014.7
20260510154713 72 219 0.9 5.2 0.00 0.00 0.00 56 1014.9
20260510154028 73 226 1.7 7.8 0.00 0.00 0.00 55 1014.7
20260510153525 74 223 1.7 7.0 0.00 0.00 0.00 54 1014.7
20260510153216 74 229 3.5 7.8 0.00 0.00 0.00 54 1014.9
20260510152534 74 112 3.5 6.1 0.00 0.00 0.00 54 1014.6
20260510152034 74 240 2.6 6.1 0.00 0.00 0.00 54 1014.9
20260510151709 74 214 1.7 5.2 0.00 0.00 0.00 54 1014.8
20260510151035 74 187 1.7 7.0 0.00 0.00 0.00 55 1014.8
20260510150536 74 204 1.7 4.3 0.00 0.00 0.00 57 1014.7
20260510150236 74 207 2.6 6.1 0.00 0.00 0.00 53 1014.7
20260510145529 73 251 2.6 7.0 0.00 0.00 0.00 54 1014.7
20260510145032 73 201 3.5 7.8 0.00 0.00 0.00 54 1014.6
20260510144711 73 275 1.7 6.1 0.00 0.00 0.00 56 1014.6
20260510144036 72 321 1.7 7.8 0.00 0.00 0.00 57 1014.7
20260510143534 73 163 2.6 7.0 0.00 0.00 0.00 55 1014.5
20260510143209 73 274 1.7 6.1 0.00 0.00 0.00 54 1014.6
20260510142535 74 161 3.5 6.1 0.00 0.00 0.00 53 1014.6
20260510142043 73 246 1.7 6.1 0.00 0.00 0.00 56 1014.8
20260510141736 72 225 2.6 6.1 0.00 0.00 0.00 57 1014.9
20260510141038 72 236 1.7 6.1 0.00 0.00 0.00 55 1014.9
20260510140525 73 254 1.7 5.2 0.00 0.00 0.00 57 1014.7
20260510140231 72 221 0.9 4.3 0.00 0.00 0.00 60 1014.7
20260510135538 70 250 0.0 2.6 0.00 0.00 0.00 62 1014.7
20260510135029 69 213 1.7 3.5 0.00 0.00 0.00 61 1014.7
20260510134741 70 233 1.7 6.1 0.00 0.00 0.00 61 1014.6
20260510134030 69 141 1.7 6.1 0.00 0.00 0.00 62 1014.5
20260510133523 69 267 0.9 4.3 0.00 0.00 0.00 62 1014.5
20260510133234 69 226 0.9 4.3 0.00 0.00 0.00 65 1014.6
20260510132533 68 255 0.9 6.1 0.00 0.00 0.00 66 1014.5
20260510132026 66 264 0.9 6.1 0.00 0.00 0.00 67 1014.6
20260510131727 65 223 0.9 3.5 0.00 0.00 0.00 70 1014.5
20260510131039 65 209 0.0 3.5 0.00 0.00 0.00 71 1014.7
20260510130525 65 144 0.0 2.6 0.00 0.00 0.00 70 1014.5
20260510130252 66 211 0.9 7.0 0.00 0.00 0.00 69 1014.6
20260510125532 66 207 0.9 7.8 0.00 0.00 0.00 69 1014.6
20260510125047 66 176 3.5 7.8 0.00 0.00 0.00 74 1014.4
20260510124735 63 74 0.0 1.7 0.00 0.00 0.00 82 1014.6
20260510124025 62 121 0.0 3.5 0.00 0.00 0.00 81 1014.5
20260510123539 62 352 0.0 3.5 0.00 0.00 0.00 81 1014.3
20260510123234 60 217 0.9 1.7 0.00 0.00 0.00 86 1014.4
20260510122534 60 204 0.0 1.7 0.00 0.00 0.00 86 1014.4
20260510122032 60 227 0.0 1.7 0.00 0.00 0.00 86 1014.1
20260510121733 60 171 0.0 4.3 0.00 0.00 0.00 87 1014.0
20260510121028 59 230 0.0 4.3 0.00 0.00 0.00 90 1013.9
20260510120525 56 172 0.0 1.7 0.00 0.00 0.00 93 1013.8
20260510120248 54 194 0.0 0.9 0.00 0.00 0.00 92 1013.9
20260510115546 53 308 0.0 1.7 0.00 0.00 0.00 93 1013.9
20260510115034 52 352 0.0 1.7 0.00 0.00 0.00 93 1014.1
20260510114733 52 27 0.0 1.7 0.00 0.00 0.00 93 1013.9
20260510114034 51 5 0.0 0.9 0.00 0.00 0.00 93 1013.9
20260510113533 51 5 0.0 0.9 0.00 0.00 0.00 93 1013.7
20260510113243 50 5 0.0 0.9 0.00 0.00 0.00 93 1013.8
20260510112536 50 22 0.0 1.7 0.00 0.00 0.00 93 1013.7
20260510112032 49 22 0.0 1.7 0.00 0.00 0.00 93 1013.5
20260510111741 49 330 0.0 0.9 0.00 0.00 0.00 93 1013.6
20260510111037 49 330 0.0 0.9 0.00 0.00 0.00 93 1013.5
20260510110539 49 134 0.0 1.7 0.00 0.00 0.00 93 1013.4
20260510110312 48 24 0.0 1.7 0.00 0.00 0.00 93 1013.4
20260510105525 48 329 0.0 1.7 0.00 0.00 0.00 93 1013.1
20260510105040 48 329 0.0 1.7 0.00 0.00 0.00 93 1013.2
20260510104747 48 288 0.0 0.0 0.00 0.00 0.00 93 1013.4
20260510104035 48 288 0.0 0.9 0.00 0.00 0.00 93 1013.3
20260510103530 48 288 0.0 0.9 0.00 0.00 0.00 93 1013.1
20260510103213 48 288 0.0 0.0 0.00 0.00 0.00 93 1013.1
20260510102530 48 288 0.0 0.0 0.00 0.00 0.00 93 1013.1
20260510102036 48 288 0.0 0.0 0.00 0.00 0.00 93 1012.9
20260510101750 48 288 0.0 0.9 0.00 0.00 0.00 93 1012.8
20260510101048 49 288 0.0 0.9 0.00 0.00 0.00 93 1013.0
20260510100532 49 288 0.0 0.9 0.00 0.00 0.00 93 1012.9
20260510100217 48 288 0.0 0.0 0.00 0.00 0.00 93 1013.0
20260510095540 48 288 0.0 0.0 0.00 0.00 0.00 93 1013.0
20260510095044 48 288 0.0 0.0 0.00 0.00 0.00 92 1013.0
20260510094719 48 288 0.0 0.9 0.00 0.00 0.00 92 1012.8
20260510094029 49 288 0.0 0.9 0.00 0.00 0.00 92 1012.7
20260510093534 49 288 0.0 0.9 0.00 0.00 0.00 93 1012.4
20260510093158 49 288 0.0 0.9 0.00 0.00 0.00 92 1012.4
20260510092540 49 287 0.0 0.9 0.00 0.00 0.00 92 1012.5
20260510092044 49 287 0.0 1.7 0.00 0.00 0.00 93 1012.3
20260510091716 49 296 0.0 0.9 0.00 0.00 0.00 92 1012.4
20260510091037 49 296 0.0 0.9 0.00 0.00 0.00 92 1012.5
20260510090526 49 296 0.0 0.9 0.00 0.00 0.00 93 1012.4
20260510090222 49 296 0.0 0.9 0.00 0.00 0.00 92 1012.3
20260510085543 49 296 0.0 0.9 0.00 0.00 0.00 92 1012.2
20260510085031 49 296 0.0 0.9 0.00 0.00 0.00 92 1012.4
20260510084717 49 296 0.0 0.9 0.00 0.00 0.00 92 1012.5
20260510084032 49 296 0.0 0.9 0.00 0.00 0.00 92 1012.3
20260510083525 49 296 0.0 0.9 0.00 0.00 0.00 92 1012.1
20260510083152 49 296 0.0 0.9 0.00 0.00 0.00 92 1012.2
20260510082541 49 296 0.0 0.0 0.00 0.00 0.00 92 1012.0
20260510082025 50 296 0.0 0.0 0.00 0.00 0.00 93 1012.0
20260510081718 49 296 0.0 0.0 0.00 0.00 0.00 92 1012.0
20260510081025 49 296 0.0 0.9 0.00 0.00 0.00 92 1012.1
20260510080528 49 296 0.0 1.7 0.00 0.00 0.00 92 1012.0
20260510080235 49 296 0.0 1.7 0.00 0.00 0.00 92 1012.0
20260510075540 50 296 0.0 0.9 0.00 0.00 0.00 92 1012.0
20260510075028 50 296 0.0 1.7 0.00 0.00 0.00 92 1012.0
20260510074710 50 296 0.0 1.7 0.00 0.00 0.00 92 1011.8
20260510074040 50 296 0.0 0.9 0.00 0.00 0.00 92 1011.8
20260510073546 50 296 0.0 0.9 0.00 0.00 0.00 92 1011.9
20260510073211 50 296 0.0 0.9 0.00 0.00 0.00 92 1011.9
20260510072524 50 296 0.0 0.9 0.00 0.00 0.00 92 1011.9
20260510072024 50 296 0.0 0.9 0.00 0.00 0.00 92 1011.7
20260510071654 50 296 0.0 0.9 0.00 0.00 0.00 92 1011.8
20260510071038 50 296 0.0 0.9 0.00 0.00 0.00 92 1011.8
20260510070541 50 296 0.0 0.0 0.00 0.00 0.00 92 1011.8
20260510070219 50 296 0.0 1.7 0.00 0.00 0.00 92 1011.6
20260510065540 50 296 0.0 1.7 0.00 0.00 0.00 92 1011.9
20260510065019 50 247 0.0 0.0 0.00 0.00 0.00 92 1011.7
20260510064700 50 247 0.0 0.9 0.00 0.00 0.00 92 1011.7
20260510064034 50 247 0.0 0.9 0.00 0.00 0.00 92 1011.8
20260510063517 50 247 0.0 0.9 0.00 0.00 0.00 92 1011.7
20260510063138 50 247 0.0 0.9 0.00 0.00 0.00 92 1011.8
20260510062517 50 247 0.0 0.0 0.00 0.00 0.00 92 1011.7
20260510062039 50 247 0.0 0.0 0.00 0.00 0.00 92 1011.8
20260510061639 51 247 0.0 0.0 0.00 0.00 0.00 92 1011.9
20260510061042 51 247 0.0 0.0 0.00 0.00 0.00 92 1011.8
20260510060539 50 247 0.0 0.0 0.00 0.00 0.00 92 1011.7
20260510060200 50 247 0.0 0.0 0.00 0.00 0.00 92 1011.8
20260510055525 50 247 0.0 0.9 0.00 0.00 0.00 92 1011.9
20260510055034 51 247 0.0 0.9 0.00 0.00 0.00 91 1011.8
20260510054635 51 247 0.0 0.9 0.00 0.00 0.00 92 1012.0
20260510054030 51 247 0.0 0.0 0.00 0.00 0.00 91 1011.9
20260510053536 51 247 0.0 0.9 0.00 0.00 0.00 92 1012.0
20260510053204 51 247 0.0 0.9 0.00 0.00 0.00 91 1011.9
20260510052521 51 247 0.0 0.9 0.00 0.00 0.00 91 1012.0
20260510052020 51 247 0.0 0.9 0.00 0.00 0.00 91 1012.0
20260510051655 51 247 0.0 0.0 0.00 0.00 0.00 91 1012.1
20260510051029 51 247 0.0 0.0 0.00 0.00 0.00 91 1012.0
20260510050527 51 247 0.0 0.0 0.00 0.00 0.00 91 1012.1
20260510050203 51 247 0.0 0.0 0.00 0.00 0.00 91 1012.1
20260510045539 51 247 0.0 0.9 0.00 0.00 0.00 91 1012.2
20260510045020 51 247 0.0 0.9 0.00 0.00 0.00 91 1012.1
20260510044655 51 247 0.0 0.9 0.00 0.00 0.00 91 1012.2
20260510044031 51 247 0.0 0.9 0.00 0.00 0.00 91 1012.3
20260510043538 51 247 0.0 0.9 0.00 0.00 0.00 91 1012.2
20260510043144 51 247 0.0 0.9 0.00 0.00 0.00 91 1012.2
20260510042534 52 247 0.0 0.9 0.00 0.00 0.00 91 1012.2
20260510042039 52 247 0.0 0.0 0.00 0.00 0.00 91 1012.3
20260510041657 52 247 0.0 0.0 0.00 0.00 0.00 91 1012.3
20260510041025 52 247 0.0 0.9 0.00 0.00 0.00 91 1012.4
20260510040524 52 247 0.0 0.9 0.00 0.00 0.00 90 1012.1
20260510040210 52 247 0.0 0.9 0.00 0.00 0.00 91 1012.3
20260510035539 53 247 0.0 0.9 0.00 0.00 0.00 91 1012.2
20260510035030 53 247 0.0 0.9 0.00 0.00 0.00 91 1012.3
20260510034650 53 247 0.0 0.9 0.00 0.00 0.00 91 1012.1
20260510034023 53 247 0.0 1.7 0.00 0.00 0.00 90 1012.2
20260510033520 53 247 0.0 1.7 0.00 0.00 0.00 90 1012.3
20260510033148 53 192 0.0 0.9 0.00 0.00 0.00 90 1012.3
20260510032526 53 192 0.0 0.0 0.00 0.00 0.00 90 1012.2
20260510032028 53 192 0.0 0.9 0.00 0.00 0.00 90 1012.1
20260510031650 53 192 0.0 0.9 0.00 0.00 0.00 90 1012.0
20260510031025 54 192 0.0 0.0 0.00 0.00 0.00 90 1012.0
20260510030526 54 192 0.0 0.9 0.00 0.00 0.00 90 1012.2
20260510030209 54 192 0.0 0.9 0.00 0.00 0.00 90 1012.2
20260510025529 54 192 0.0 0.9 0.00 0.00 0.00 89 1012.2
20260510025038 54 192 0.0 0.9 0.00 0.00 0.00 89 1011.9
20260510024654 54 192 0.0 0.9 0.00 0.00 0.00 89 1011.9
20260510024044 55 192 0.0 0.9 0.00 0.00 0.00 89 1011.9
20260510023543 54 192 0.0 0.9 0.00 0.00 0.00 89 1011.7
20260510023159 55 192 0.0 0.9 0.00 0.00 0.00 89 1011.8
20260510022539 55 176 0.0 1.7 0.00 0.00 0.00 89 1011.6
20260510022035 55 172 0.0 1.7 0.00 0.00 0.00 88 1011.7
20260510021702 55 232 0.0 1.7 0.00 0.00 0.00 88 1011.6
20260510021038 56 274 0.9 1.7 0.00 0.00 0.00 88 1011.4
20260510020538 56 274 0.0 0.9 0.00 0.00 0.00 87 1011.2
20260510020158 56 274 0.0 0.9 0.00 0.00 0.00 87 1011.4
20260510015547 56 238 0.0 1.7 0.00 0.00 0.00 87 1011.2
20260510015042 57 238 0.0 1.7 0.00 0.00 0.00 87 1011.0
20260510014728 57 175 0.0 0.9 0.00 0.00 0.00 86 1011.0
20260510014034 57 175 0.0 0.9 0.00 0.00 0.00 86 1010.9
20260510013533 57 175 0.0 0.9 0.00 0.00 0.00 85 1010.9
20260510013156 58 175 0.0 0.9 0.00 0.00 0.00 85 1010.9
20260510012524 58 175 0.0 1.7 0.00 0.00 0.00 84 1010.6
20260510012028 58 175 0.0 1.7 0.00 0.00 0.00 84 1010.7
20260510011644 59 164 0.0 1.7 0.00 0.00 0.00 83 1010.5
20260510011027 59 164 0.0 0.9 0.00 0.00 0.00 83 1010.4
20260510010556 59 164 0.0 0.9 0.00 0.00 0.00 82 1010.4
20260510010239 60 164 0.0 0.9 0.00 0.00 0.00 81 1010.3
20260510005535 60 164 0.0 0.9 0.00 0.00 0.00 80 1010.3
20260510005036 61 164 0.0 0.9 0.00 0.00 0.00 80 1010.2
20260510004740 61 164 0.0 0.9 0.00 0.00 0.00 79 1010.1
20260510004030 62 164 0.0 1.7 0.00 0.00 0.00 78 1010.0
20260510003543 62 164 0.0 2.6 0.00 0.00 0.00 77 1010.1
20260510003141 63 165 0.9 2.6 0.00 0.00 0.00 75 1010.0
20260510002532 64 179 0.9 1.7 0.00 0.00 0.00 72 1009.9
20260510002022 65 199 0.0 1.7 0.00 0.00 0.00 70 1009.8
20260510001700 66 184 0.9 1.7 0.00 0.00 0.00 69 1009.8
20260510001018 66 184 0.0 3.5 0.00 0.00 0.00 67 1009.6
20260510000531 67 194 1.7 3.5 0.00 0.00 0.00 66 1009.7
20260510000207 67 217 1.7 4.3 0.00 0.00 0.00 66 1009.8
20260509235541 67 177 0.9 4.3 0.00 0.00 0.00 66 1009.7
20260509235018 68 190 0.9 3.5 0.00 0.00 0.00 64 1009.6
20260509234644 68 227 0.9 3.5 0.00 0.00 0.00 64 1009.6
20260509234021 68 163 0.9 4.3 0.00 0.00 0.00 63 1009.7
20260509233548 69 192 1.7 5.2 0.00 0.00 0.00 62 1009.7
20260509233209 69 178 2.6 5.2 0.00 0.00 0.00 62 1009.5
20260509232543 69 214 1.7 6.1 0.00 0.00 0.00 61 1009.6
20260509232043 69 240 2.6 8.7 0.00 0.00 0.00 60 1009.4
20260509231652 69 242 2.6 8.7 0.00 0.00 0.00 60 1009.4